{"data":{"norad_id":69200,"intl_designator":"2026-114U","name":"STARLINK-37761","alt_names":[],"object_type":"PAYLOAD","status":"ACTIVE","operator":null,"country":"US","launch_date":"2026-05-25","launch_site_code":"AFETR","launch_vehicle":null,"mission":null,"orbit_class":"UNKNOWN","rcs_meters":null,"size_class":null,"mass_kg":null,"dimensions":null,"purposes":["comms"],"wikipedia_slug":null,"has_3d_model":false,"image_url":null,"decayed_at":null,"tle_current":{"epoch":"2026-09-20T00:29:34.802880Z","epoch_age_seconds":68436,"freshness":"FRESH","line1":"1 69200U 26114U   26263.02054170  .00005778  00000+0  18203-3 0  9992","line2":"2 69200  53.1582 115.8941 0001213  78.8763 281.2376 15.34398015 19376","mean_motion":15.34398015,"eccentricity":0.0001213,"inclination_deg":53.1582,"raan_deg":115.8941,"arg_perigee_deg":78.8763,"mean_anomaly_deg":281.2376,"bstar":0.00018203,"rev_number":1937,"period_min":93.847879489078,"perigee_km":461.879345415,"apogee_km":463.53893468857,"semimajor_km":6840.8461400518,"source":"CELESTRAK","updated_at":"2026-09-20T09:00:44.099248Z"}}}